Showing default

MOZHAYETS 4, 27939

Orbit data source: Space-Track

MOZHAYETS 4, 27939 is a payload satellite owned by Mozhaiskiy (CIS) in SSO that was launched on Sat, 27 Sep 2003 UTC via a KOSMOS 11K65M launch vehicle from the Plesetsk Missile And Space Complex (PKMTR). Payload-class satellites include a variety of spacecraft equipped with specific instruments for various scientific and technological missions. These include communications satellites like Starlink; space stations such as the ISS; scientific satellites like the Hubble; Earth observation satellites from companies like Planet Labs, Umbra, and HawkEye 360; GPS; miniature CubeSats for education and research; and military/defense satellites.

Loading next visibility...
Identifier
27939, 2003-042A
Orbit
SSO
Country
Flag of CISCIS
Related business
Manufacturer
NPO PM
Mission
Operational Civil Technology
Bus & Motor
STRELA-1M, Unknown motor
Mass
64 kg wet, 64 kg dry
Launch date (UTC)
2003-09-27 (22 years ago)
Launch vehicle
KOSMOS 11K65M
Launch site
Plesetsk Missile And Space Complex (PKMTR)
Object type
Payload
Rocket body
Debris
Shape & HBR
Poly, 0.5 m
Radar Cross Section
1.143 m², Medium (>0.1 m² and < 1m²)

Expand to show TLE details & history
Last TLE update: 7 hours ago

TLE from 7 hours ago
0 MOZHAYETS 4
1 27939U 03042A   25286.94347274  .00001889  00000-0  30413-3 0  9992
2 27939  98.3379  99.5653 0010882 335.0071 179.5621 14.72712754179295
Epoch: 2025-10-13T22:38Z
TLE epoch observation values (Epoch: 2025-10-13T22:38:36.044Z)
Latitude
25.17303°
Longitude
-78.89549°
Altitude
663.19 km
Speed
7.524 km/s
True Right ascension
18h 53m 58s
True Declination
25° 02' 21"
Sunlit
Object was in daylight at epoch
Visualization orbit readout
Latitude
Unknown
Longitude
Unknown
Altitude
Unknown
Speed
Unknown
Apparent Right ascension
Unknown
Apparent Declination
Unknown
Sunlit
N/A
Visualization observer readout
Local Sidereal Time
00:04:02
Azimuth
Unknown
Elevation
Unknown
Doppler factor
Unknown
Orbital elements
Apogee altitude
657.139 km
Perigee altitude
641.844 km
Semi-major axis
7,027.629 km
Eccentricity
0.00109
Inclination
98.3379°
RAAN
99.5653°
Arg. of periapsis
335.0071°
True anomaly
179.56305°
Mean anomaly
179.5621°
Eccentric anomaly
179.56258°
Mean motion
3.68409 °/min
Orbital period
97.72 mins
BSTAR
0.00030413
Loading maneuver chart data...
Computing Atmospheric mass density...
Loading historical data...
Loading historical data...
Loading historical data...
Loading historical data...
Loading historical data...
Loading historical data...
Loading historical data...
Other satellites on launch #42 in the year 2003 (2003-09-27 UTC)

Documentation

Showing up to 5 results
|